Terug naar catalogus

METEOSAT 10

MSG 3

ActiefWeerGEO
NORAD 38552·PAYLOAD·🇪🇺 EU

Gelanceerd Jul 5, 2012 vanaf Guiana Space Centre

Loading…

TLE

VersSource: Space-Track

Epoch: Sep 14, 2026, 13:48 UTC

1 38552U 12035B   26257.57518769 -.00000013  00000-0  00000-0 0  9999
2 38552   4.8791  60.5182 0000845  98.2348  41.9320  1.00271417 51757

Volg METEOSAT 10 in realtime met AllMySat

Download on the App Store